Orbital Elements at Epoch 2459000.5 (2020-May-31.0) TDB
Reference: JPL 19 (heliocentric ecliptic J2000)
Element | Value | Uncertainty (1-sigma) | Units |
e | .1935637435155777 | 4.5669e-08 | |
a | 2.774730019559545 | 2.1347e-08 | au |
q | 2.237642889728547 | 1.2614e-07 | au |
i | 13.57727840674491 | 5.53e-06 | deg |
node | 54.86576313617442 | 2.0976e-05 | deg |
peri | 272.198722306224 | 2.6088e-05 | deg |
M | 173.2345843770206 | 1.8349e-05 | deg |
tp | 2458188.115509172840 (2018-Mar-10.61550917) | 8.3126e-05 | TDB |
period | 1688.221885655829 4.62 | 1.9482e-05 5.334e-08 | d yr |
n | .213242111750109 | 2.4609e-09 | deg/d |
Q | 3.311817149390542 | 2.5479e-08 | au |
|
| | Orbit Determination Parameters
Additional Information
|